User: anonymous   Login
Location: Holmes Observatory
(37.1039°N, 122.0513°W)
Time: 10:09:54
(UTC-08:00)
Language:

Cosmos 921 Rocket - Orbit

View from above orbital plane
View from above orbital plane
View from above satellite
View from above satellite

Ground track
Ground track

The orbit data is extracted from the following two-line orbital elements,

1 10096U 77055B   17021.17725710  .00000029  00000-0  52716-5 0  9998
2 10096  75.8339 260.7196 0043376 221.8072 137.9803 14.88526847140378
Epoch (UTC): 21 January 2017 04:15:15
Eccentricity: 0.0043376
inclination: 75.8339°
perigee height: 572 km
apogee height: 633 km
right ascension of ascending node: 260.7196°
argument of perigee: 221.8072°
revolutions per day: 14.88526847
mean anomaly at epoch: 137.9803°
orbit number at epoch: 14037

The dashed part of the orbit path shows where the satellite is in the earth's shadow,  

DLR